Location: Buisson
(44.2787°N, 4.9969°E)
Time: 01:20:35
(UTC+00:00)

Cosmos 1356 Rocket - Pass Details

Date: 18 April 2021
Orbit: 542 x 598 km, 81.2° (Epoch: 07 May)

Event Time Altitude Azimuth Distance (km) Brightness Sun altitude
Rises 02:44:07 0° 354° (N) 2,751 7.4 -20.8°
Reaches altitude 10° 02:46:20 10° 360° (N) 1,859 6.5 -20.5°
Maximum altitude 02:50:20 51° 77° (ENE) 722 4.2 -19.9°
Drops below altitude 10° 02:54:23 10° 153° (SSE) 1,878 5.9 -19.4°
Enters shadow 02:55:52 - 157° (SSE) 2,474 6.5 -19.2°
